Stations météo

réclame
Mon MeteoGroup
Svanberga, Suède (2490): Température de l'air & dewpoint: 14.01.2019 12:00:00 - 20.01.2019 12:00:00 (CET)Svanberga, Suède (2490): Vitesse du vent & gusts: 14.01.2019 12:00:00 - 20.01.2019 12:00:00 (CET)Svanberga, Suède (2490): Direction du vent: 14.01.2019 12:00:00 - 20.01.2019 12:00:00 (CET)Svanberga, Suède (2490): reduced air pressure: 14.01.2019 12:00:00 - 20.01.2019 12:00:00 (CET)Svanberga, Suède (2490): visibility: 14.01.2019 12:00:00 - 20.01.2019 12:00:00 (CET)Svanberga, Suède (2490): Quantités de précipitations: 14.01.2019 12:00:00 - 20.01.2019 12:00:00 (CET)
Date & Time tt [°C] td [°C] ff [km/h] ff [knt] fx [km/h] fx [knt] dd ppp [hPa] vv [km] rr [mm]
20.01.2019 12:00:00 - - - - - - - - - -
20.01.2019 11:00:00 -8,1 -10,8 6 3 12 7 W 1013,3 49 0,0
20.01.2019 10:00:00 -9,5 -12,0 5 3 13 7 W 1012,9 50 0,0
20.01.2019 09:00:00 -10,4 -12,6 4 2 14 8 W 1012,1 50 0,0
20.01.2019 08:00:00 -10,5 -12,4 6 4 13 7 W 1011,5 50 0,0
20.01.2019 07:00:00 -10,7 -12,7 5 3 14 8 WSW 1010,9 50 0,0
20.01.2019 06:00:00 -10,7 -12,7 5 3 13 7 WSW 1010,8 50 0,0
20.01.2019 05:00:00 -9,7 -11,6 4 2 13 7 WSW 1010,6 50 0,0
20.01.2019 04:00:00 -8,4 -10,9 6 3 16 9 W 1010,2 50 0,0
20.01.2019 03:00:00 -8,4 -10,8 6 4 16 8 W 1009,9 50 0,0
20.01.2019 02:00:00 -8,2 -10,7 6 4 14 8 W 1009,5 50 0,0
20.01.2019 01:00:00 -8,1 -10,6 4 2 12 6 W 1009,0 50 0,0
20.01.2019 00:00:00 -7,2 -9,9 5 3 15 8 W 1008,4 50 0,0
19.01.2019 23:00:00 -7,3 -10,0 5 3 18 10 W 1008,0 50 0,0
19.01.2019 22:00:00 -6,0 -9,4 7 4 24 13 WNW 1007,3 50 0,0
19.01.2019 21:00:00 -5,8 -9,0 7 4 22 12 W 1006,7 50 0,0
19.01.2019 20:00:00 -6,0 -8,9 7 4 18 10 W 1006,4 50 0,0
19.01.2019 19:00:00 -5,5 -8,1 7 4 23 12 W 1006,0 50 0,0
19.01.2019 18:00:00 -3,9 -6,5 9 5 23 12 W 1005,7 50 0,0
19.01.2019 17:00:00 -3,9 -6,2 9 5 22 12 W 1005,6 50 0,0
19.01.2019 16:00:00 -3,5 -6,0 9 5 23 12 WSW 1005,4 50 0,0
19.01.2019 15:00:00 -3,6 -6,1 8 5 18 10 W 1005,4 50 0,0
19.01.2019 14:00:00 -3,8 -5,9 7 4 22 12 W 1005,4 50 0,0
19.01.2019 13:00:00 -4,7 -6,4 6 4 21 11 WSW 1005,6 50 0,0
19.01.2019 12:00:00 -6,0 -7,4 5 3 22 12 WSW 1006,1 45 0,0
19.01.2019 11:00:00 -9,3 -10,2 3 2 8 4 W 1007,1 50 0,0
19.01.2019 10:00:00 -11,0 -11,9 3 2 10 6 WSW 1008,0 50 0,0
19.01.2019 09:00:00 - - - - 5 3 - - - -
19.01.2019 08:00:00 -16,0 -17,4 0 0 10 5 N 1008,6 50 0,0
19.01.2019 07:00:00 -13,2 -14,4 2 1 10 5 SW 1008,7 50 0,0
19.01.2019 06:00:00 -14,0 -15,0 3 2 8 4 SSW 1008,7 50 0,0
19.01.2019 05:00:00 -13,9 -15,0 3 2 9 5 SW 1008,9 50 0,0
19.01.2019 04:00:00 -12,7 -13,9 4 2 12 6 WSW 1008,8 50 0,0
19.01.2019 03:00:00 -13,2 -14,5 4 2 10 5 WSW 1008,4 50 0,0
19.01.2019 02:00:00 -11,5 -12,5 5 3 12 7 WSW 1008,4 50 0,0
19.01.2019 01:00:00 -9,9 -11,2 5 3 12 7 WSW 1008,0 50 0,0
19.01.2019 00:00:00 -10,2 -11,2 5 3 14 7 WSW 1007,5 50 0,0
18.01.2019 23:00:00 -11,8 -12,8 5 3 10 6 WSW 1007,0 50 0,0
18.01.2019 22:00:00 -11,4 -12,4 5 3 15 8 W 1006,6 50 0,0
18.01.2019 21:00:00 - - - - 10 5 - - - -
18.01.2019 20:00:00 -10,0 -10,9 5 3 11 6 WSW 1005,5 50 0,0
18.01.2019 19:00:00 -8,7 -10,0 5 3 13 7 WSW 1004,9 50 0,0
18.01.2019 18:00:00 -7,5 -9,0 6 3 14 7 WSW 1004,5 50 0,0
18.01.2019 17:00:00 -7,9 -9,3 5 3 18 10 W 1004,0 50 0,0
18.01.2019 16:00:00 -7,1 -8,3 6 3 13 7 WSW 1003,4 50 0,0
18.01.2019 15:00:00 -6,6 -8,3 7 4 16 9 W 1002,5 50 0,0
18.01.2019 14:00:00 -5,7 -7,1 8 4 18 10 W 1001,9 50 0,0
18.01.2019 13:00:00 -5,8 -7,3 7 4 16 9 W 1001,3 50 0,0
18.01.2019 12:00:00 -6,9 -8,6 5 3 16 9 W 1000,9 50 0,0
18.01.2019 11:00:00 -7,9 -8,6 4 2 14 7 WSW 1000,8 50 0,0
18.01.2019 10:00:00 -9,2 -9,9 5 3 13 7 WSW 1000,5 48 0,0
18.01.2019 09:00:00 -9,4 -10,1 6 3 12 6 W 1000,1 50 0,0
18.01.2019 08:00:00 -10,4 -10,9 4 2 11 6 WSW 999,4 50 0,0
18.01.2019 07:00:00 -11,0 -11,1 5 3 11 6 WSW 999,0 50 0,0
18.01.2019 06:00:00 -11,8 -12,0 4 2 11 6 W 998,7 50 0,0
18.01.2019 05:00:00 -11,1 - 4 2 12 6 WSW 998,5 50 0,0
18.01.2019 04:00:00 -12,8 - 5 3 11 6 WSW 998,2 50 0,0
18.01.2019 03:00:00 -12,3 - 6 3 12 7 WSW 997,9 50 0,0
18.01.2019 02:00:00 -14,2 -15,5 4 2 10 6 WSW 997,5 50 0,0
18.01.2019 01:00:00 -13,2 -14,6 4 2 12 6 WSW 997,4 50 0,0
18.01.2019 00:00:00 -10,9 -12,4 6 3 13 7 WSW 996,8 50 0,0
17.01.2019 23:00:00 -10,7 -12,2 5 3 12 7 WSW 996,4 50 0,0
17.01.2019 22:00:00 -10,1 -11,6 5 3 11 6 WSW 995,9 50 0,0
17.01.2019 21:00:00 -9,3 -10,6 4 2 14 8 WSW 995,4 50 0,0
17.01.2019 20:00:00 -9,0 -10,3 6 3 13 7 WSW 994,7 50 0,0
17.01.2019 19:00:00 -7,1 -8,5 6 3 22 12 W 993,8 50 0,0
17.01.2019 18:00:00 -4,8 -5,5 7 4 17 9 W 992,8 0,9 0,4
17.01.2019 17:00:00 -5,9 -7,0 6 3 15 8 W 992,0 40 0,0
17.01.2019 16:00:00 -4,8 -6,5 7 4 19 11 NW 991,1 45 0,0
17.01.2019 15:00:00 -3,7 -5,9 9 5 35 19 NW 989,7 50 0,0
17.01.2019 14:00:00 -2,5 -4,2 12 6 31 17 NNW 988,3 5 0,1
17.01.2019 13:00:00 -2,0 -3,9 13 7 28 15 NNW 987,3 10 0,1
17.01.2019 12:00:00 -2,0 -3,3 8 5 20 11 NW 986,0 11 0,0
17.01.2019 11:00:00 -2,1 -4,1 6 4 28 15 N 984,9 37 0,0
17.01.2019 10:00:00 -2,1 -4,0 10 6 30 16 NNW 983,9 36 0,0
17.01.2019 09:00:00 -2,1 -3,4 9 5 20 11 NNW 982,3 10 0,0
17.01.2019 08:00:00 -3,2 -3,7 7 4 18 10 WNW 980,8 10 0,1
17.01.2019 07:00:00 -4,4 -5,1 9 5 21 11 WNW 979,9 9 0,1
17.01.2019 06:00:00 -4,3 -5,0 11 6 24 13 WNW 979,7 50 0,0
17.01.2019 05:00:00 -2,9 -3,7 9 5 27 15 W 979,3 50 0,0
17.01.2019 04:00:00 -1,2 -1,6 10 6 29 15 W 978,7 50 0,0
17.01.2019 03:00:00 0,7 0,7 7 4 20 11 W 978,1 10 0,0
17.01.2019 02:00:00 0,0 0,0 0 0 3 2 N 978,0 6 0,0
17.01.2019 01:00:00 0,9 0,9 2 1 14 7 SW 978,6 4,9 0,1
17.01.2019 00:00:00 0,5 0,4 2 1 14 7 SW 978,8 14 0,0
16.01.2019 23:00:00 0,6 0,5 4 2 14 8 W 979,5 11 0,1
16.01.2019 22:00:00 0,6 0,5 5 3 11 6 SW 979,8 45 0,1
16.01.2019 21:00:00 0,1 0,0 5 3 22 12 SE 980,7 3,9 0,7
16.01.2019 20:00:00 -0,1 -0,4 12 7 24 13 ESE 982,0 1,0 2,0
16.01.2019 19:00:00 -0,9 -1,3 14 7 27 15 ESE 984,6 0,6 1,8
16.01.2019 18:00:00 -1,6 -2,2 11 6 24 13 ESE 986,9 1,2 1,2
16.01.2019 17:00:00 -3,3 -3,8 7 4 15 8 E 989,3 0,8 1,1
16.01.2019 16:00:00 -4,8 -5,8 6 4 11 6 E 991,4 1,2 0,5
16.01.2019 15:00:00 -6,3 -7,8 6 3 9 5 ESE 993,4 43 0,0
16.01.2019 14:00:00 -7,1 -8,7 4 2 9 5 SE 994,9 45 0,0
16.01.2019 13:00:00 -8,7 -10,2 0 0 4 2 N 996,0 40 0,0
16.01.2019 12:00:00 -10,0 -11,3 2 1 4 2 NE 996,7 39 0,0
16.01.2019 11:00:00 -11,3 -12,2 0 0 5 3 N 997,3 40 0,0
16.01.2019 10:00:00 -13,6 -14,4 2 1 3 2 SSW 998,1 47 0,0
16.01.2019 09:00:00 -15,0 -16,0 0 0 4 2 N 998,4 50 0,0
16.01.2019 08:00:00 -16,2 -17,5 3 2 5 3 SW 998,3 50 0,0
16.01.2019 07:00:00 -14,6 -15,6 0 0 4 2 N 997,7 50 0,0
16.01.2019 06:00:00 -14,4 -15,4 0 0 8 4 N 997,5 50 0,0
16.01.2019 05:00:00 -12,2 -12,7 5 3 9 5 W 997,7 50 0,0
16.01.2019 04:00:00 -12,1 -13,3 4 2 8 4 W 997,3 50 0,0
16.01.2019 03:00:00 -12,1 -13,4 3 2 8 5 W 997,3 50 0,0
16.01.2019 02:00:00 -12,8 -14,1 2 1 7 4 WSW 996,5 49 0,0
16.01.2019 01:00:00 -11,3 -12,3 4 2 9 5 W 995,9 45 0,0
16.01.2019 00:00:00 -11,4 -12,3 3 2 8 4 W 995,3 49 0,0
15.01.2019 23:00:00 -10,3 -11,6 3 2 8 5 WSW 994,9 49 0,0
15.01.2019 22:00:00 -7,5 -9,6 3 2 11 6 W 994,5 50 0,0
15.01.2019 21:00:00 -7,1 -9,0 3 1 11 6 WSW 993,9 50 0,0
15.01.2019 20:00:00 -6,4 -8,5 4 2 9 5 W 993,5 50 0,0
15.01.2019 19:00:00 -8,4 -9,3 0 0 6 3 N 993,1 50 0,0
15.01.2019 18:00:00 -8,1 -9,3 0 0 6 4 N 993,0 50 0,0
15.01.2019 17:00:00 -7,0 -8,8 0 0 8 4 N 993,1 50 0,0
15.01.2019 16:00:00 -5,9 -8,8 2 1 9 5 SW 993,1 50 0,0
15.01.2019 15:00:00 -4,9 -8,5 2 1 14 7 SSW 993,2 49 0,0
15.01.2019 14:00:00 -4,4 -8,3 7 4 14 8 W 993,2 50 0,0
15.01.2019 13:00:00 -3,8 -7,9 8 4 26 14 W 993,4 49 0,0
15.01.2019 12:00:00 -3,9 -7,5 8 4 18 10 WNW 993,3 50 0,0
15.01.2019 11:00:00 -4,3 -7,4 7 4 18 10 WNW 993,3 45 0,0
15.01.2019 10:00:00 -4,1 -7,4 10 5 22 12 WNW 993,4 49 0,0
15.01.2019 09:00:00 -3,3 -7,1 14 7 28 15 WNW 993,3 40 0,0
15.01.2019 08:00:00 -2,3 -6,0 10 5 23 12 WNW 992,4 44 0,0
15.01.2019 07:00:00 -2,3 -5,8 10 5 27 15 NW 991,3 40 0,0
15.01.2019 06:00:00 -2,5 -5,8 12 6 35 19 NW 990,7 40 0,0
15.01.2019 05:00:00 -3,3 -4,6 14 7 34 19 NW 989,9 3,2 0,5
15.01.2019 04:00:00 -3,4 -4,8 15 8 35 19 WNW 989,1 2,1 0,3
15.01.2019 03:00:00 -3,7 -4,7 13 7 30 16 WNW 988,3 1,0 0,3
15.01.2019 02:00:00 -3,8 -4,9 15 8 38 20 NW 987,5 0,8 0,2
15.01.2019 01:00:00 -4,0 -5,4 15 8 32 18 WNW 986,8 1,6 0,1
15.01.2019 00:00:00 -4,1 -5,3 15 8 33 18 WNW 986,3 1,2 0,4
14.01.2019 23:00:00 -4,0 -5,7 15 8 36 20 WNW 985,8 1,5 0,2
14.01.2019 22:00:00 -3,7 -7,3 17 9 42 23 WNW 985,4 3,4 0,0
14.01.2019 21:00:00 - - - - 42 23 - - - -
14.01.2019 20:00:00 -2,9 -9,0 16 9 35 19 WNW 984,1 50 0,0
14.01.2019 19:00:00 -3,2 -9,0 15 8 37 20 WNW 983,8 50 0,0
14.01.2019 18:00:00 -3,5 -8,6 14 8 30 16 WNW 983,5 50 0,0
14.01.2019 17:00:00 -3,7 -8,2 12 7 27 15 WNW 982,9 50 0,0
14.01.2019 16:00:00 -3,8 -7,9 12 6 25 13 WNW 982,4 50 0,0
14.01.2019 15:00:00 -3,5 -8,0 11 6 24 13 WNW 981,5 50 0,0
14.01.2019 14:00:00 -3,3 -8,7 13 7 27 14 WNW 980,6 50 0,0
14.01.2019 13:00:00 -3,6 -9,4 11 6 22 12 WNW 980,0 50 0,0
14.01.2019 12:00:00 -4,3 -9,9 9 5 20 11 W 979,4 50 0,0

tt = Température de l'air
td = dewpoint
ff = Vitesse du vent
fx = gusts
dd = Direction du vent
ppp = reduced air pressure
vv = visibility
rr = Quantités de précipitations

stations d'obs. à proximité